QPF
0.00 0.00 0.01 0.01 0.01 0.01 0.01 0.01 0.03 0.03 0.03 0.03 0.02 0.03 0.04 0.04 0.06 0.05 0.05 0.04 0.07 0.14 0.15 0.14 0.13 0.14 0.13 0.11 0.10 0.11 0.10 0.09 0.07 0.04 0.03 0.03 0.03 0.03 0.03 0.03 0.04 0.04 0.04 0.03
0.00 0.01 0.00 0.00 0.00 0.01 0.01 0.01 0.02 0.03 0.03 0.02 0.01 0.03 0.04 0.03 0.05 0.05 0.06 0.05 0.05 0.05 0.07 0.09 0.10 0.11 0.13 0.14 0.11 0.11 0.12 0.08 0.06 0.04 0.04 0.04 0.04 0.04 0.04 0.05 0.03 0.03 0.03 0.03
0.00 0.00 0.00 0.00 0.00 0.01 0.01 0.02 0.03 0.03 0.03 0.02 0.01 0.02 0.04 0.05 0.05 0.10 0.14 0.10 0.07 0.07 0.09 0.10 0.09 0.14 0.16 0.13 0.11 0.09 0.11 0.11 0.07 0.06 0.06 0.05 0.05 0.05 0.04 0.04 0.03 0.03 0.05 0.05
0.00 0.00 0.00 0.00 0.00 0.01 0.01 0.02 0.04 0.05 0.03 0.02 0.01 0.02 0.04 0.06 0.06 0.13 0.14 0.10 0.09 0.13 0.13 0.09 0.08 0.11 0.14 0.11 0.08 0.08 0.09 0.09 0.08 0.08 0.07 0.06 0.06 0.05 0.05 0.06 0.06 0.07 0.08 0.10
0.00 0.00 0.00 0.00 0.00 0.00 0.01 0.02 0.02 0.03 0.03 0.02 0.03 0.02 0.03 0.05 0.06 0.08 0.07 0.07 0.07 0.09 0.11 0.08 0.06 0.06 0.10 0.12 0.09 0.09 0.09 0.08 0.08 0.09 0.10 0.08 0.07 0.07 0.07 0.07 0.07 0.08 0.08 0.07
0.00 0.00 0.01 0.01 0.00 0.00 0.01 0.01 0.01 0.03 0.03 0.02 0.02 0.02 0.03 0.04 0.06 0.05 0.03 0.04 0.09 0.09 0.08 0.05 0.03 0.04 0.07 0.10 0.14 0.16 0.13 0.09 0.09 0.10 0.12 0.12 0.13 0.14 0.13 0.12 0.11 0.10 0.10 0.09
0.01 0.01 0.01 0.01 0.01 0.01 0.01 0.01 0.02 0.02 0.02 0.02 0.03 0.04 0.05 0.06 0.05 0.04 0.03 0.03 0.09 0.07 0.04 0.04 0.04 0.03 0.05 0.08 0.12 0.13 0.09 0.09 0.08 0.07 0.07 0.11 0.15 0.14 0.13 0.13 0.11 0.11 0.10 0.08
0.03 0.01 0.01 0.01 0.01 0.01 0.01 0.02 0.03 0.03 0.03 0.04 0.03 0.05 0.07 0.07 0.06 0.05 0.06 0.05 0.06 0.08 0.05 0.04 0.05 0.05 0.07 0.08 0.08 0.09 0.08 0.06 0.05 0.04 0.04 0.06 0.07 0.08 0.07 0.08 0.07 0.06 0.06 0.05
0.01 0.01 0.01 0.00 0.00 0.00 0.01 0.01 0.02 0.03 0.03 0.03 0.03 0.06 0.09 0.09 0.08 0.07 0.07 0.06 0.06 0.08 0.05 0.03 0.06 0.07 0.05 0.05 0.05 0.06 0.06 0.06 0.05 0.04 0.04 0.04 0.04 0.05 0.07 0.07 0.07 0.06 0.05 0.05
0.01 0.01 0.01 0.00 0.00 0.00 0.01 0.03 0.03 0.05 0.05 0.06 0.05 0.07 0.10 0.13 0.13 0.13 0.08 0.06 0.06 0.07 0.06 0.04 0.04 0.05 0.03 0.03 0.04 0.03 0.04 0.04 0.05 0.05 0.05 0.04 0.04 0.05 0.07 0.09 0.11 0.09 0.07 0.06
0.01 0.00 0.01 0.01 0.01 0.01 0.02 0.03 0.03 0.05 0.06 0.09 0.08 0.07 0.06 0.09 0.11 0.13 0.07 0.05 0.04 0.05 0.06 0.05 0.05 0.04 0.03 0.03 0.03 0.03 0.02 0.03 0.04 0.04 0.05 0.06 0.06 0.06 0.07 0.07 0.10 0.10 0.08 0.05
0.01 0.00 0.01 0.01 0.01 0.01 0.02 0.03 0.04 0.05 0.07 0.08 0.07 0.05 0.05 0.06 0.09 0.08 0.06 0.06 0.05 0.04 0.04 0.04 0.04 0.04 0.03 0.02 0.02 0.03 0.03 0.04 0.04 0.04 0.05 0.05 0.06 0.07 0.06 0.05 0.06 0.08 0.08 0.06
0.02 0.01 0.02 0.01 0.01 0.01 0.02 0.02 0.02 0.03 0.05 0.07 0.06 0.05 0.06 0.09 0.09 0.09 0.09 0.08 0.05 0.04 0.04 0.05 0.06 0.04 0.03 0.02 0.02 0.02 0.03 0.04 0.04 0.04 0.03 0.03 0.02 0.02 0.03 0.04 0.05 0.05 0.06 0.05
0.02 0.02 0.02 0.02 0.02 0.01 0.01 0.02 0.02 0.02 0.02 0.03 0.03 0.03 0.05 0.09 0.09 0.07 0.07 0.06 0.04 0.04 0.03 0.03 0.04 0.03 0.03 0.03 0.03 0.03 0.03 0.03 0.04 0.04 0.04 0.03 0.02 0.02 0.02 0.02 0.03 0.03 0.03 0.03
0.02 0.02 0.02 0.01 0.01 0.01 0.01 0.01 0.01 0.02 0.02 0.03 0.02 0.02 0.04 0.05 0.05 0.05 0.07 0.06 0.04 0.04 0.03 0.02 0.02 0.03 0.03 0.02 0.02 0.03 0.03 0.02 0.02 0.03 0.04 0.04 0.04 0.04 0.04 0.03 0.03 0.02 0.02 0.03
0.03 0.02 0.02 0.01 0.01 0.02 0.03 0.02 0.02 0.02 0.02 0.02 0.02 0.02 0.03 0.04 0.03 0.03 0.03 0.02 0.02 0.02 0.02 0.02 0.02 0.02 0.02 0.01 0.01 0.02 0.02 0.02 0.03 0.03 0.03 0.04 0.06 0.07 0.05 0.03 0.03 0.03 0.03 0.03
0.03 0.04 0.05 0.03 0.03 0.03 0.03 0.02 0.01 0.02 0.02 0.02 0.02 0.02 0.02 0.03 0.04 0.04 0.02 0.01 0.02 0.01 0.01 0.01 0.01 0.03 0.02 0.02 0.01 0.02 0.02 0.02 0.03 0.03 0.03 0.03 0.06 0.09 0.05 0.03 0.03 0.04 0.03 0.02
0.03 0.05 0.07 0.06 0.06 0.05 0.02 0.02 0.02 0.02 0.02 0.02 0.03 0.03 0.02 0.02 0.02 0.02 0.02 0.01 0.01 0.01 0.01 0.02 0.01 0.01 0.02 0.02 0.02 0.02 0.02 0.02 0.03 0.03 0.03 0.03 0.06 0.09 0.04 0.03 0.04 0.03 0.02 0.02
0.03 0.06 0.07 0.07 0.06 0.05 0.03 0.02 0.02 0.02 0.03 0.02 0.02 0.02 0.02 0.03 0.02 0.02 0.02 0.01 0.01 0.01 0.01 0.01 0.01 0.01 0.02 0.02 0.02 0.03 0.03 0.03 0.03 0.04 0.03 0.03 0.05 0.05 0.03 0.03 0.02 0.04 0.03 0.03
0.04 0.06 0.08 0.07 0.07 0.05 0.03 0.02 0.02 0.02 0.03 0.02 0.02 0.02 0.03 0.05 0.06 0.02 0.01 0.01 0.02 0.02 0.01 0.01 0.01 0.02 0.02 0.03 0.03 0.03 0.04 0.04 0.04 0.04 0.03 0.05 0.05 0.03 0.03 0.02 0.03 0.03 0.05 0.05
0.06 0.07 0.07 0.08 0.09 0.07 0.02 0.01 0.01 0.02 0.02 0.02 0.02 0.01 0.02 0.06 0.04 0.03 0.03 0.03 0.03 0.02 0.03 0.02 0.02 0.02 0.03 0.04 0.05 0.05 0.05 0.03 0.05 0.05 0.05 0.04 0.03 0.03 0.02 0.02 0.03 0.03 0.04 0.06
0.07 0.10 0.08 0.07 0.07 0.05 0.01 0.01 0.01 0.01 0.01 0.01 0.02 0.02 0.02 0.03 0.02 0.03 0.04 0.04 0.03 0.03 0.02 0.02 0.02 0.02 0.04 0.05 0.06 0.06 0.04 0.03 0.04 0.05 0.04 0.04 0.03 0.02 0.02 0.02 0.02 0.02 0.03 0.03
0.07 0.08 0.08 0.07 0.06 0.04 0.02 0.01 0.01 0.01 0.01 0.01 0.01 0.03 0.03 0.02 0.02 0.03 0.04 0.03 0.02 0.02 0.02 0.01 0.02 0.02 0.04 0.06 0.07 0.06 0.03 0.03 0.03 0.03 0.03 0.02 0.01 0.01 0.02 0.02 0.02 0.02 0.02 0.02
0.06 0.06 0.07 0.08 0.07 0.05 0.03 0.02 0.02 0.02 0.01 0.01 0.02 0.03 0.03 0.03 0.02 0.02 0.02 0.02 0.02 0.02 0.01 0.02 0.02 0.03 0.04 0.05 0.05 0.03 0.02 0.03 0.03 0.03 0.04 0.03 0.02 0.01 0.01 0.01 0.01 0.01 0.01 0.02
0.06 0.07 0.07 0.07 0.05 0.04 0.03 0.03 0.03 0.02 0.02 0.02 0.03 0.03 0.03 0.03 0.03 0.02 0.02 0.01 0.02 0.02 0.01 0.02 0.03 0.03 0.04 0.03 0.02 0.02 0.02 0.02 0.03 0.04 0.04 0.03 0.03 0.02 0.01 0.01 0.01 0.01 0.01 0.02
0.05 0.06 0.09 0.09 0.07 0.05 0.04 0.05 0.04 0.04 0.04 0.05 0.04 0.04 0.03 0.03 0.03 0.02 0.01 0.01 0.03 0.03 0.02 0.02 0.02 0.02 0.03 0.02 0.02 0.02 0.02 0.02 0.02 0.04 0.05 0.03 0.03 0.02 0.01 0.01 0.01 0.01 0.02 0.01
MSLP
1011.63 1012.19 1012.49 1012.50 1012.28 1011.91 1011.52 1011.20 1011.03 1011.04 1011.22 1011.52 1011.86 1012.16 1012.36 1012.41 1012.33 1012.13 1011.87 1011.63 1011.44 1011.36 1011.41 1011.57 1011.82 1012.12 1012.43 1012.71 1012.95 1013.16 1013.32 1013.47 1013.63 1013.78 1013.95 1014.13 1014.29 1014.42 1014.52 1014.58 1014.61 1014.61 1014.63 1014.66
1011.64 1012.02 1012.13 1012.00 1011.71 1011.34 1011.01 1010.81 1010.79 1010.94 1011.23 1011.59 1011.94 1012.20 1012.34 1012.34 1012.21 1012.01 1011.81 1011.65 1011.59 1011.65 1011.82 1012.07 1012.37 1012.66 1012.93 1013.14 1013.31 1013.44 1013.57 1013.71 1013.88 1014.07 1014.29 1014.50 1014.68 1014.82 1014.90 1014.92 1014.91 1014.88 1014.87 1014.88
1011.38 1011.55 1011.50 1011.27 1010.96 1010.67 1010.49 1010.49 1010.67 1011.01 1011.44 1011.87 1012.22 1012.43 1012.48 1012.37 1012.17 1011.94 1011.76 1011.68 1011.73 1011.92 1012.21 1012.56 1012.91 1013.22 1013.44 1013.60 1013.69 1013.75 1013.83 1013.95 1014.12 1014.35 1014.60 1014.85 1015.07 1015.22 1015.30 1015.31 1015.27 1015.22 1015.18 1015.18
1010.85 1010.83 1010.65 1010.39 1010.15 1010.02 1010.07 1010.34 1010.79 1011.36 1011.94 1012.44 1012.78 1012.91 1012.83 1012.58 1012.26 1011.96 1011.75 1011.71 1011.84 1012.14 1012.54 1012.99 1013.40 1013.73 1013.94 1014.04 1014.08 1014.08 1014.10 1014.19 1014.37 1014.61 1014.90 1015.19 1015.44 1015.62 1015.71 1015.72 1015.67 1015.59 1015.53 1015.51
1010.15 1009.97 1009.72 1009.48 1009.38 1009.48 1009.83 1010.42 1011.18 1012.00 1012.74 1013.31 1013.61 1013.62 1013.37 1012.95 1012.46 1012.04 1011.77 1011.72 1011.90 1012.28 1012.79 1013.32 1013.80 1014.17 1014.38 1014.47 1014.46 1014.41 1014.40 1014.47 1014.63 1014.88 1015.19 1015.52 1015.80 1016.00 1016.11 1016.12 1016.07 1015.98 1015.89 1015.84
1009.42 1009.12 1008.84 1008.69 1008.77 1009.15 1009.82 1010.75 1011.81 1012.85 1013.73 1014.33 1014.57 1014.45 1014.01 1013.38 1012.71 1012.14 1011.78 1011.69 1011.90 1012.33 1012.92 1013.54 1014.10 1014.51 1014.76 1014.85 1014.83 1014.76 1014.73 1014.77 1014.93 1015.18 1015.51 1015.84 1016.14 1016.37 1016.48 1016.50 1016.43 1016.33 1016.22 1016.13
1008.82 1008.44 1008.17 1008.13 1008.41 1009.06 1010.03 1011.24 1012.55 1013.77 1014.74 1015.33 1015.48 1015.20 1014.58 1013.75 1012.89 1012.18 1011.72 1011.60 1011.80 1012.29 1012.94 1013.65 1014.28 1014.76 1015.07 1015.19 1015.19 1015.13 1015.09 1015.14 1015.28 1015.53 1015.85 1016.18 1016.48 1016.70 1016.81 1016.82 1016.75 1016.62 1016.48 1016.36
1008.50 1008.06 1007.82 1007.89 1008.35 1009.20 1010.39 1011.81 1013.26 1014.57 1015.55 1016.09 1016.12 1015.69 1014.90 1013.90 1012.91 1012.08 1011.56 1011.42 1011.64 1012.17 1012.89 1013.67 1014.38 1014.94 1015.31 1015.50 1015.54 1015.52 1015.50 1015.54 1015.69 1015.92 1016.22 1016.53 1016.81 1017.00 1017.09 1017.08 1016.98 1016.83 1016.67 1016.51
1008.56 1008.10 1007.88 1008.02 1008.58 1009.54 1010.83 1012.31 1013.79 1015.07 1015.98 1016.41 1016.32 1015.75 1014.84 1013.75 1012.68 1011.83 1011.30 1011.17 1011.44 1012.02 1012.81 1013.65 1014.44 1015.08 1015.53 1015.78 1015.89 1015.91 1015.93 1015.99 1016.13 1016.34 1016.60 1016.87 1017.10 1017.25 1017.30 1017.26 1017.13 1016.96 1016.77 1016.59
1009.04 1008.56 1008.35 1008.50 1009.07 1010.02 1011.27 1012.67 1014.03 1015.16 1015.91 1016.19 1015.97 1015.31 1014.35 1013.25 1012.22 1011.41 1010.96 1010.91 1011.25 1011.90 1012.75 1013.66 1014.51 1015.21 1015.72 1016.04 1016.21 1016.29 1016.35 1016.43 1016.57 1016.76 1016.97 1017.19 1017.35 1017.44 1017.44 1017.35 1017.19 1016.99 1016.78 1016.59
1009.88 1009.38 1009.15 1009.27 1009.75 1010.57 1011.64 1012.81 1013.92 1014.81 1015.33 1015.43 1015.10 1014.40 1013.46 1012.46 1011.56 1010.91 1010.61 1010.70 1011.15 1011.88 1012.78 1013.73 1014.61 1015.34 1015.90 1016.27 1016.50 1016.63 1016.73 1016.83 1016.96 1017.12 1017.29 1017.44 1017.53 1017.55 1017.48 1017.34 1017.15 1016.94 1016.73 1016.54
1010.93 1010.43 1010.16 1010.18 1010.51 1011.11 1011.90 1012.75 1013.52 1014.08 1014.34 1014.26 1013.84 1013.15 1012.32 1011.50 1010.82 1010.40 1010.32 1010.59 1011.16 1011.98 1012.92 1013.87 1014.75 1015.48 1016.05 1016.44 1016.71 1016.88 1017.01 1017.13 1017.26 1017.39 1017.51 1017.59 1017.60 1017.55 1017.43 1017.25 1017.03 1016.82 1016.62 1016.46
1012.00 1011.50 1011.19 1011.10 1011.24 1011.57 1012.02 1012.49 1012.88 1013.10 1013.09 1012.83 1012.36 1011.74 1011.09 1010.50 1010.11 1009.97 1010.14 1010.60 1011.31 1012.19 1013.14 1014.07 1014.91 1015.60 1016.14 1016.54 1016.81 1017.01 1017.16 1017.29 1017.42 1017.52 1017.59 1017.61 1017.56 1017.45 1017.27 1017.06 1016.84 1016.63 1016.46 1016.33
1012.89 1012.41 1012.06 1011.86 1011.81 1011.86 1011.97 1012.07 1012.09 1011.98 1011.73 1011.34 1010.85 1010.34 1009.89 1009.58 1009.49 1009.65 1010.07 1010.72 1011.54 1012.46 1013.39 1014.27 1015.03 1015.66 1016.14 1016.51 1016.78 1016.99 1017.15 1017.30 1017.42 1017.50 1017.53 1017.50 1017.39 1017.23 1017.02 1016.79 1016.57 1016.39 1016.25 1016.17
1013.47 1013.02 1012.64 1012.35 1012.12 1011.93 1011.74 1011.50 1011.20 1010.82 1010.38 1009.90 1009.44 1009.06 1008.83 1008.80 1009.01 1009.44 1010.09 1010.89 1011.79 1012.72 1013.60 1014.39 1015.05 1015.59 1016.01 1016.33 1016.59 1016.80 1016.99 1017.14 1017.26 1017.33 1017.33 1017.26 1017.12 1016.92 1016.69 1016.46 1016.25 1016.10 1016.00 1015.96
1013.68 1013.25 1012.85 1012.49 1012.12 1011.73 1011.30 1010.81 1010.26 1009.68 1009.11 1008.59 1008.19 1007.96 1007.94 1008.16 1008.62 1009.28 1010.10 1011.02 1011.96 1012.86 1013.67 1014.36 1014.93 1015.37 1015.73 1016.01 1016.26 1016.48 1016.68 1016.85 1016.98 1017.04 1017.02 1016.93 1016.76 1016.54 1016.30 1016.08 1015.89 1015.77 1015.71 1015.72
1013.57 1013.13 1012.71 1012.28 1011.80 1011.27 1010.66 1009.99 1009.28 1008.58 1007.95 1007.44 1007.11 1007.02 1007.19 1007.62 1008.27 1009.11 1010.04 1011.02 1011.96 1012.82 1013.56 1014.16 1014.63 1015.01 1015.31 1015.58 1015.83 1016.07 1016.29 1016.48 1016.62 1016.68 1016.66 1016.55 1016.37 1016.14 1015.90 1015.68 1015.52 1015.42 1015.40 1015.43
1013.25 1012.77 1012.29 1011.78 1011.22 1010.57 1009.85 1009.07 1008.27 1007.52 1006.87 1006.41 1006.18 1006.22 1006.54 1007.12 1007.92 1008.86 1009.86 1010.86 1011.78 1012.58 1013.25 1013.77 1014.19 1014.52 1014.81 1015.08 1015.35 1015.62 1015.88 1016.09 1016.25 1016.32 1016.29 1016.17 1015.98 1015.75 1015.51 1015.31 1015.16 1015.09 1015.08 1015.13
1012.92 1012.33 1011.76 1011.15 1010.49 1009.74 1008.94 1008.09 1007.25 1006.49 1005.88 1005.49 1005.35 1005.51 1005.95 1006.64 1007.52 1008.52 1009.54 1010.53 1011.42 1012.18 1012.79 1013.28 1013.67 1013.99 1014.29 1014.60 1014.91 1015.22 1015.51 1015.76 1015.93 1016.00 1015.97 1015.85 1015.65 1015.41 1015.18 1014.98 1014.85 1014.79 1014.79 1014.83
1012.73 1012.00 1011.28 1010.53 1009.74 1008.90 1008.01 1007.12 1006.27 1005.54 1004.98 1004.67 1004.63 1004.88 1005.41 1006.17 1007.10 1008.12 1009.14 1010.11 1010.97 1011.69 1012.28 1012.76 1013.15 1013.50 1013.84 1014.19 1014.56 1014.91 1015.24 1015.51 1015.69 1015.77 1015.73 1015.60 1015.39 1015.16 1014.92 1014.73 1014.60 1014.54 1014.54 1014.57
1012.79 1011.88 1010.97 1010.05 1009.11 1008.14 1007.18 1006.24 1005.40 1004.70 1004.21 1003.97 1004.02 1004.35 1004.95 1005.76 1006.71 1007.73 1008.75 1009.69 1010.52 1011.23 1011.82 1012.31 1012.73 1013.13 1013.52 1013.93 1014.34 1014.73 1015.09 1015.37 1015.56 1015.62 1015.57 1015.43 1015.22 1014.97 1014.74 1014.55 1014.42 1014.35 1014.34 1014.36
1013.11 1012.00 1010.88 1009.77 1008.66 1007.57 1006.51 1005.54 1004.69 1004.03 1003.60 1003.44 1003.57 1003.97 1004.62 1005.46 1006.43 1007.44 1008.43 1009.36 1010.18 1010.88 1011.48 1012.00 1012.46 1012.91 1013.35 1013.80 1014.25 1014.67 1015.04 1015.32 1015.49 1015.54 1015.48 1015.32 1015.10 1014.85 1014.61 1014.42 1014.28 1014.21 1014.18 1014.18
1013.59 1012.29 1010.99 1009.70 1008.43 1007.20 1006.06 1005.05 1004.20 1003.58 1003.21 1003.12 1003.32 1003.78 1004.47 1005.33 1006.30 1007.30 1008.27 1009.18 1009.99 1010.70 1011.31 1011.85 1012.35 1012.84 1013.32 1013.80 1014.26 1014.69 1015.04 1015.31 1015.46 1015.49 1015.41 1015.23 1015.00 1014.75 1014.51 1014.32 1014.18 1014.09 1014.05 1014.02
1014.06 1012.63 1011.19 1009.75 1008.35 1007.02 1005.81 1004.77 1003.94 1003.35 1003.04 1003.02 1003.27 1003.79 1004.51 1005.38 1006.35 1007.33 1008.28 1009.17 1009.96 1010.66 1011.28 1011.84 1012.36 1012.86 1013.36 1013.84 1014.30 1014.71 1015.05 1015.29 1015.41 1015.42 1015.32 1015.14 1014.91 1014.66 1014.42 1014.22 1014.07 1013.97 1013.91 1013.85
1014.32 1012.84 1011.32 1009.80 1008.32 1006.94 1005.71 1004.66 1003.86 1003.32 1003.07 1003.11 1003.42 1003.97 1004.72 1005.60 1006.54 1007.50 1008.43 1009.28 1010.05 1010.74 1011.34 1011.90 1012.42 1012.91 1013.40 1013.87 1014.30 1014.68 1014.99 1015.20 1015.30 1015.29 1015.19 1015.01 1014.79 1014.54 1014.31 1014.11 1013.95 1013.83 1013.74 1013.65
1014.22 1012.75 1011.23 1009.71 1008.23 1006.85 1005.64 1004.64 1003.89 1003.41 1003.23 1003.33 1003.69 1004.28 1005.03 1005.90 1006.83 1007.75 1008.63 1009.45 1010.18 1010.82 1011.40 1011.93 1012.43 1012.90 1013.36 1013.80 1014.20 1014.55 1014.83 1015.02 1015.11 1015.10 1015.00 1014.84 1014.63 1014.40 1014.17 1013.97 1013.80 1013.65 1013.52 1013.40
Thickness
5752 5736 5726 5733 5739 5739 5738 5733 5730 5739 5756 5749 5742 5742 5749 5755 5755 5752 5749 5749 5748 5747 5749 5748 5747 5744 5740 5736 5732 5728 5724 5720 5717 5712 5708 5703 5699 5696 5693 5691 5688 5685 5682 5680
5731 5727 5744 5751 5751 5746 5740 5731 5729 5739 5752 5747 5738 5735 5745 5751 5749 5749 5745 5743 5744 5742 5741 5740 5739 5737 5733 5730 5726 5722 5719 5716 5713 5710 5706 5702 5697 5692 5689 5685 5682 5679 5676 5674
5726 5739 5756 5752 5746 5741 5738 5731 5730 5731 5740 5743 5734 5723 5733 5742 5745 5745 5744 5741 5742 5741 5738 5736 5734 5731 5727 5723 5721 5719 5717 5713 5710 5707 5702 5696 5691 5686 5682 5678 5675 5673 5670 5667
5735 5749 5751 5746 5744 5743 5728 5744 5743 5737 5723 5711 5721 5696 5717 5729 5732 5736 5737 5736 5735 5737 5737 5734 5730 5726 5723 5721 5719 5715 5712 5710 5706 5702 5697 5691 5684 5679 5675 5672 5669 5666 5664 5661
5733 5746 5744 5739 5745 5749 5740 5750 5744 5736 5720 5707 5709 5695 5704 5721 5721 5727 5732 5734 5734 5734 5733 5730 5727 5724 5721 5718 5714 5710 5706 5703 5700 5697 5692 5686 5681 5676 5671 5666 5663 5659 5656 5654
5742 5754 5752 5749 5756 5756 5751 5740 5731 5719 5704 5689 5701 5695 5695 5711 5722 5728 5731 5732 5732 5730 5729 5726 5723 5719 5714 5711 5707 5703 5700 5696 5693 5690 5686 5681 5676 5670 5665 5660 5656 5652 5649 5647
5729 5742 5753 5757 5744 5745 5737 5709 5688 5684 5676 5681 5702 5697 5699 5722 5733 5734 5730 5728 5727 5726 5723 5719 5715 5712 5707 5704 5700 5696 5693 5688 5686 5683 5679 5676 5671 5666 5660 5655 5651 5646 5643 5640
5707 5712 5739 5750 5741 5729 5727 5711 5681 5669 5667 5676 5693 5691 5706 5726 5732 5733 5730 5726 5722 5719 5716 5713 5710 5706 5702 5698 5694 5689 5686 5683 5679 5676 5673 5669 5665 5660 5655 5651 5646 5642 5638 5636
5705 5710 5742 5750 5751 5739 5721 5708 5704 5682 5676 5670 5680 5695 5709 5721 5721 5721 5719 5716 5713 5712 5710 5706 5703 5700 5696 5692 5688 5685 5681 5677 5673 5670 5666 5662 5659 5654 5649 5645 5641 5637 5634 5632
5718 5709 5729 5743 5745 5738 5729 5716 5692 5677 5663 5659 5673 5684 5688 5702 5707 5710 5709 5707 5706 5704 5702 5699 5696 5692 5689 5686 5683 5680 5677 5672 5669 5665 5661 5657 5653 5649 5644 5640 5636 5632 5629 5626
5720 5703 5711 5723 5720 5715 5714 5707 5693 5676 5670 5659 5656 5674 5706 5705 5708 5707 5706 5705 5702 5699 5696 5693 5689 5685 5683 5680 5677 5673 5670 5666 5663 5660 5656 5652 5648 5643 5639 5635 5632 5628 5626 5622
5714 5697 5691 5706 5723 5728 5716 5706 5692 5673 5668 5666 5658 5674 5713 5710 5710 5708 5705 5703 5699 5696 5692 5687 5683 5679 5676 5673 5671 5668 5664 5661 5658 5656 5651 5647 5643 5639 5634 5630 5628 5625 5621 5618
5707 5689 5675 5683 5696 5708 5706 5706 5698 5683 5670 5663 5659 5676 5708 5706 5705 5705 5701 5698 5694 5690 5686 5682 5678 5674 5671 5668 5665 5662 5659 5656 5654 5650 5646 5641 5637 5634 5630 5627 5624 5621 5618 5615
5706 5683 5675 5671 5680 5692 5695 5700 5699 5685 5667 5666 5673 5683 5694 5697 5697 5697 5696 5693 5688 5684 5680 5676 5673 5671 5668 5664 5661 5657 5654 5652 5649 5646 5642 5637 5633 5630 5627 5624 5621 5618 5616 5612
5693 5678 5682 5687 5696 5699 5699 5700 5699 5691 5686 5678 5684 5687 5692 5696 5697 5695 5692 5688 5684 5680 5676 5673 5670 5666 5664 5660 5656 5653 5650 5648 5646 5642 5638 5634 5631 5628 5625 5622 5619 5616 5613 5611
5680 5674 5678 5682 5695 5696 5695 5700 5700 5698 5697 5692 5691 5689 5699 5698 5695 5691 5688 5684 5680 5677 5675 5672 5668 5664 5661 5658 5654 5650 5647 5645 5642 5639 5635 5633 5630 5627 5623 5620 5617 5613 5610 5607
5670 5668 5664 5664 5682 5685 5679 5694 5697 5696 5700 5695 5685 5690 5694 5690 5689 5687 5684 5681 5679 5676 5674 5670 5666 5663 5660 5656 5653 5648 5646 5643 5640 5637 5634 5632 5629 5626 5622 5620 5615 5611 5607 5604
5666 5661 5654 5654 5663 5657 5684 5706 5705 5699 5698 5700 5696 5693 5692 5691 5690 5688 5685 5681 5678 5676 5672 5668 5665 5661 5658 5655 5651 5648 5644 5641 5638 5635 5632 5630 5627 5624 5621 5617 5613 5609 5606 5602
5674 5663 5652 5647 5648 5662 5687 5699 5699 5692 5687 5696 5692 5691 5689 5687 5683 5680 5683 5682 5678 5675 5671 5667 5664 5660 5656 5653 5650 5646 5642 5639 5635 5633 5631 5629 5626 5622 5618 5615 5612 5608 5605 5601
5673 5665 5653 5647 5646 5650 5676 5699 5707 5695 5677 5694 5692 5687 5683 5679 5667 5673 5682 5680 5676 5673 5669 5665 5662 5658 5654 5651 5648 5644 5640 5636 5634 5632 5630 5628 5625 5621 5617 5614 5611 5607 5604 5600
5652 5651 5648 5645 5644 5660 5687 5700 5698 5670 5673 5692 5691 5687 5682 5677 5676 5679 5679 5677 5674 5670 5667 5664 5660 5656 5653 5650 5646 5641 5638 5635 5634 5633 5630 5627 5623 5620 5617 5613 5610 5607 5603 5599
5643 5643 5644 5643 5640 5654 5690 5691 5681 5678 5688 5691 5690 5687 5683 5680 5679 5678 5676 5673 5670 5666 5664 5661 5656 5653 5650 5648 5644 5640 5636 5636 5634 5632 5629 5626 5623 5620 5618 5613 5609 5606 5602 5598
5644 5646 5645 5649 5656 5674 5684 5685 5688 5688 5686 5687 5685 5685 5682 5677 5674 5673 5671 5668 5666 5664 5660 5658 5654 5650 5648 5646 5644 5639 5638 5637 5634 5630 5627 5625 5623 5620 5617 5613 5609 5605 5601 5597
5642 5649 5647 5650 5663 5672 5679 5683 5685 5687 5686 5686 5685 5683 5679 5675 5672 5670 5667 5664 5662 5660 5658 5655 5652 5648 5646 5645 5644 5641 5640 5637 5633 5629 5625 5624 5621 5619 5616 5612 5609 5605 5602 5598
5635 5638 5639 5645 5658 5667 5675 5677 5680 5682 5684 5683 5682 5681 5678 5674 5670 5667 5664 5663 5661 5658 5656 5653 5651 5648 5646 5644 5643 5642 5640 5636 5631 5628 5625 5622 5620 5618 5615 5612 5609 5607 5605 5602
5637 5636 5636 5642 5654 5655 5662 5672 5676 5676 5677 5679 5678 5676 5676 5674 5669 5667 5664 5662 5660 5657 5655 5652 5650 5648 5646 5645 5642 5641 5639 5636 5631 5627 5624 5622 5619 5617 5615 5612 5610 5610 5607 5605